TimeCST,TemperatureF,Dew PointF,Humidity,Sea Level PressureIn,VisibilityMPH,Wind Direction,Wind SpeedMPH,Gust SpeedMPH,PrecipitationIn,Events,Conditions,WindDirDegrees,DateUTC
12:11 AM,35.6,32.0,87,30.11,10.0,West,3.5,-,N/A,,Overcast,270,2014-02-09 06:11:00
12:53 AM,36.0,32.0,86,30.13,10.0,Calm,Calm,-,N/A,,Overcast,0,2014-02-09 06:53:00
1:53 AM,36.0,32.0,86,30.13,10.0,Calm,Calm,-,N/A,,Overcast,0,2014-02-09 07:53:00
2:53 AM,36.0,32.0,86,30.12,10.0,Calm,Calm,-,N/A,,Overcast,0,2014-02-09 08:53:00
3:53 AM,36.0,32.0,86,30.10,10.0,SSE,3.5,-,N/A,,Overcast,160,2014-02-09 09:53:00
4:53 AM,37.0,32.0,82,30.09,10.0,Calm,Calm,-,N/A,,Overcast,0,2014-02-09 10:53:00
5:42 AM,35.6,32.0,87,30.07,10.0,Calm,Calm,-,N/A,,Overcast,0,2014-02-09 11:42:00
5:53 AM,36.0,32.0,86,30.10,10.0,Calm,Calm,-,N/A,,Overcast,0,2014-02-09 11:53:00
6:53 AM,36.0,33.1,89,30.10,10.0,Variable,3.5,-,0.00,,Overcast,0,2014-02-09 12:53:00
7:53 AM,37.9,33.1,83,30.12,10.0,SW,4.6,-,N/A,,Overcast,220,2014-02-09 13:53:00
8:31 AM,37.4,33.8,87,30.12,7.0,West,8.1,-,N/A,,Overcast,260,2014-02-09 14:31:00
8:43 AM,37.4,33.8,87,30.12,4.0,WSW,9.2,-,N/A,,Overcast,250,2014-02-09 14:43:00
8:53 AM,37.0,34.0,89,30.14,2.0,West,3.5,-,N/A,,Overcast,260,2014-02-09 14:53:00
9:13 AM,37.4,35.6,93,30.11,1.8,SW,5.8,-,N/A,,Overcast,230,2014-02-09 15:13:00
9:39 AM,37.4,35.6,93,30.10,2.5,WSW,5.8,-,N/A,,Overcast,250,2014-02-09 15:39:00
9:46 AM,37.4,35.6,93,30.10,3.0,SSW,4.6,-,N/A,,Overcast,210,2014-02-09 15:46:00
9:53 AM,37.0,36.0,96,30.12,5.0,Variable,5.8,-,N/A,,Overcast,0,2014-02-09 15:53:00
10:53 AM,37.9,35.1,89,30.12,10.0,West,5.8,-,N/A,,Overcast,260,2014-02-09 16:53:00
11:22 AM,37.4,35.6,93,30.09,4.0,Variable,6.9,17.3,N/A,,Overcast,0,2014-02-09 17:22:00
11:39 AM,37.4,35.6,93,30.08,1.5,West,6.9,-,N/A,,Overcast,280,2014-02-09 17:39:00
11:53 AM,37.0,36.0,96,30.09,0.8,Variable,5.8,-,N/A,,Overcast,0,2014-02-09 17:53:00
12:01 PM,37.4,35.6,93,30.06,0.2,West,5.8,-,N/A,Fog,Fog,260,2014-02-09 18:01:00
12:43 PM,37.4,35.6,93,30.06,0.8,West,5.8,-,N/A,,Overcast,280,2014-02-09 18:43:00
12:53 PM,37.0,36.0,96,30.08,0.8,West,6.9,-,N/A,,Overcast,260,2014-02-09 18:53:00
1:02 PM,37.4,35.6,93,30.05,1.0,West,4.6,-,N/A,,Overcast,270,2014-02-09 19:02:00
1:46 PM,35.6,35.6,100,30.05,2.5,West,6.9,-,N/A,,Overcast,260,2014-02-09 19:46:00
1:53 PM,37.0,35.1,93,30.08,3.0,West,9.2,-,N/A,,Overcast,280,2014-02-09 19:53:00
2:11 PM,37.4,35.6,93,30.06,5.0,West,6.9,-,N/A,,Overcast,280,2014-02-09 20:11:00
2:26 PM,37.4,35.6,93,30.06,4.0,West,5.8,-,N/A,,Overcast,270,2014-02-09 20:26:00
2:53 PM,37.0,35.1,93,30.08,6.0,West,6.9,-,N/A,,Overcast,260,2014-02-09 20:53:00
3:51 PM,35.6,33.8,93,30.09,5.0,WNW,6.9,-,N/A,,Overcast,290,2014-02-09 21:51:00
3:53 PM,36.0,34.0,93,30.12,5.0,WNW,5.8,-,N/A,,Overcast,300,2014-02-09 21:53:00
4:53 PM,36.0,34.0,93,30.11,6.0,NW,3.5,-,N/A,,Overcast,320,2014-02-09 22:53:00
5:53 PM,35.1,33.1,92,30.16,3.0,NNW,5.8,-,N/A,,Overcast,340,2014-02-09 23:53:00
6:53 PM,34.0,32.0,92,30.18,5.0,North,6.9,-,N/A,,Overcast,350,2014-02-10 00:53:00
7:15 PM,33.8,32.0,93,30.14,2.5,NNW,4.6,-,N/A,,Overcast,340,2014-02-10 01:15:00
7:53 PM,33.1,32.0,96,30.15,2.5,North,4.6,-,N/A,,Overcast,10,2014-02-10 01:53:00
8:53 PM,32.0,30.9,96,30.14,2.0,NE,4.6,-,N/A,,Overcast,40,2014-02-10 02:53:00
9:27 PM,32.0,30.2,93,30.10,1.2,NE,6.9,-,N/A,,Overcast,40,2014-02-10 03:27:00
9:53 PM,32.0,30.9,96,30.12,1.0,NE,4.6,-,N/A,,Overcast,50,2014-02-10 03:53:00
10:17 PM,32.0,30.2,93,30.10,2.0,North,5.8,-,N/A,,Overcast,10,2014-02-10 04:17:00
10:24 PM,32.0,30.2,93,30.11,1.8,North,5.8,-,N/A,,Overcast,10,2014-02-10 04:24:00
10:42 PM,30.2,30.2,100,30.11,2.0,NNE,8.1,-,N/A,,Overcast,20,2014-02-10 04:42:00
10:53 PM,30.9,30.0,96,30.15,2.5,North,5.8,-,N/A,,Overcast,360,2014-02-10 04:53:00
11:53 PM,30.0,28.9,96,30.16,2.5,NNE,8.1,-,N/A,,Overcast,20,2014-02-10 05:53:00